Time,TemperatureF,DewpointF,PressureIn,WindDirection,WindDirectionDegrees,WindSpeedMPH,WindSpeedGustMPH,Humidity,HourlyPrecipIn,Conditions,Clouds,dailyrainin,SoftwareType,DateUTC
2013-02-08 00:03:00,30.6,20.6,30.06,ENE,67,0.0,2.0,66,0.00,,,-99.99,Weather View 32 v70,2013-02-08 05:03:00,
2013-02-08 00:08:00,30.6,20.6,30.05,ENE,67,2.0,2.0,66,0.00,,,-99.99,Weather View 32 v70,2013-02-08 05:08:00,
2013-02-08 00:13:00,30.8,20.8,30.05,ENE,67,1.0,2.0,66,0.00,,,-99.99,Weather View 32 v70,2013-02-08 05:13:00,
2013-02-08 00:20:00,30.8,20.8,30.05,ENE,67,0.0,2.0,66,0.00,,,-99.99,Weather View 32 v70,2013-02-08 05:20:00,
2013-02-08 00:28:00,30.7,21.0,30.05,ENE,67,0.0,2.0,67,0.00,,,-99.99,Weather View 32 v70,2013-02-08 05:28:00,
2013-02-08 00:38:00,30.6,20.9,30.04,ENE,67,0.0,2.0,67,0.00,,,-99.99,Weather View 32 v70,2013-02-08 05:38:00,
2013-02-08 00:43:00,30.6,21.3,30.04,ENE,67,0.0,2.0,68,0.00,,,-99.99,Weather View 32 v70,2013-02-08 05:43:00,
2013-02-08 00:48:00,30.6,20.9,30.04,ENE,67,0.0,2.0,67,0.00,,,-99.99,Weather View 32 v70,2013-02-08 05:48:00,
2013-02-08 00:53:00,30.8,21.5,30.03,ENE,67,0.0,2.0,68,0.00,,,-99.99,Weather View 32 v70,2013-02-08 05:53:00,
2013-02-08 00:58:00,30.8,21.5,30.03,ENE,67,0.0,2.0,68,0.00,,,-99.99,Weather View 32 v70,2013-02-08 05:58:00,
2013-02-08 01:03:00,30.9,21.6,30.03,ENE,67,0.0,2.0,68,0.00,,,-99.99,Weather View 32 v70,2013-02-08 06:03:00,
2013-02-08 01:13:00,31.0,21.3,30.02,ENE,67,0.0,2.0,67,0.00,,,-99.99,Weather View 32 v70,2013-02-08 06:13:00,
2013-02-08 01:18:00,31.0,21.3,30.02,ENE,67,0.0,2.0,67,0.00,,,-99.99,Weather View 32 v70,2013-02-08 06:18:00,
2013-02-08 01:23:00,31.1,21.4,30.01,ENE,67,1.0,2.0,67,0.00,,,-99.99,Weather View 32 v70,2013-02-08 06:23:00,
2013-02-08 01:33:00,31.0,21.7,30.01,ENE,67,2.0,3.0,68,0.00,,,-99.99,Weather View 32 v70,2013-02-08 06:33:00,
2013-02-08 01:38:00,31.1,21.8,30.01,ENE,67,2.0,4.0,68,0.00,,,-99.99,Weather View 32 v70,2013-02-08 06:38:00,
2013-02-08 01:43:00,31.3,21.6,30.01,ENE,67,0.0,4.0,67,0.00,,,-99.99,Weather View 32 v70,2013-02-08 06:43:00,
2013-02-08 01:48:00,31.5,21.4,30.01,ENE,67,3.0,4.0,66,0.00,,,-99.99,Weather View 32 v70,2013-02-08 06:48:00,
2013-02-08 01:58:00,31.6,21.5,30.01,ENE,67,0.0,4.0,66,0.00,,,-99.99,Weather View 32 v70,2013-02-08 06:58:00,
2013-02-08 02:03:00,31.7,21.3,30.01,ENE,67,0.0,4.0,65,0.00,,,-99.99,Weather View 32 v70,2013-02-08 07:03:00,
2013-02-08 02:08:00,31.7,21.3,30.00,ENE,67,0.0,4.0,65,0.00,,,-99.99,Weather View 32 v70,2013-02-08 07:08:00,
2013-02-08 02:13:00,31.7,21.3,30.00,ENE,67,2.0,4.0,65,0.00,,,-99.99,Weather View 32 v70,2013-02-08 07:13:00,
2013-02-08 02:18:00,31.6,21.2,30.00,ENE,67,1.0,4.0,65,0.00,,,-99.99,Weather View 32 v70,2013-02-08 07:18:00,
2013-02-08 02:28:00,31.6,20.8,29.99,ENE,67,0.0,4.0,64,0.00,,,-99.99,Weather View 32 v70,2013-02-08 07:28:00,
2013-02-08 02:33:00,31.5,21.1,29.99,ENE,67,0.0,4.0,65,0.00,,,-99.99,Weather View 32 v70,2013-02-08 07:33:00,
2013-02-08 02:38:00,31.4,21.4,29.98,ENE,67,0.0,4.0,66,0.00,,,-99.99,Weather View 32 v70,2013-02-08 07:38:00,
2013-02-08 02:43:00,31.3,21.3,29.98,ENE,67,1.0,3.0,66,0.00,,,-99.99,Weather View 32 v70,2013-02-08 07:43:00,
2013-02-08 02:48:00,31.1,21.4,29.98,ENE,67,0.0,3.0,67,0.00,,,-99.99,Weather View 32 v70,2013-02-08 07:48:00,
2013-02-08 02:58:00,30.8,21.5,29.97,North,0,2.0,3.0,68,0.00,,,-99.99,Weather View 32 v70,2013-02-08 07:58:00,
2013-02-08 03:03:00,30.8,21.5,29.97,North,0,1.0,4.0,68,0.00,,,-99.99,Weather View 32 v70,2013-02-08 08:03:00,
2013-02-08 03:13:00,30.6,21.3,29.97,NNE,28,0.0,4.0,68,0.00,,,-99.99,Weather View 32 v70,2013-02-08 08:13:00,
2013-02-08 03:18:00,30.5,21.2,29.97,North,8,2.0,4.0,68,0.00,,,-99.99,Weather View 32 v70,2013-02-08 08:18:00,
2013-02-08 03:23:00,30.5,21.2,29.96,ENE,74,0.0,4.0,68,0.00,,,-99.99,Weather View 32 v70,2013-02-08 08:23:00,
2013-02-08 03:28:00,30.6,21.3,29.96,ENE,74,1.0,4.0,68,0.00,,,-99.99,Weather View 32 v70,2013-02-08 08:28:00,
2013-02-08 03:39:00,30.5,21.2,29.96,NE,51,0.0,5.0,68,0.00,,,-99.99,Weather View 32 v70,2013-02-08 08:39:00,
2013-02-08 03:48:00,30.3,21.0,29.95,NNW,343,4.0,6.0,68,0.00,,,-99.99,Weather View 32 v70,2013-02-08 08:48:00,
2013-02-08 03:53:00,30.3,21.0,29.96,NNE,21,0.0,6.0,68,0.00,,,-99.99,Weather View 32 v70,2013-02-08 08:53:00,
2013-02-08 04:03:00,30.3,21.0,29.96,NNW,337,2.0,6.0,68,0.00,,,-99.99,Weather View 32 v70,2013-02-08 09:03:00,
2013-02-08 04:08:00,30.2,20.9,29.96,NNW,339,1.0,6.0,68,0.00,,,-99.99,Weather View 32 v70,2013-02-08 09:08:00,
2013-02-08 04:13:00,30.2,20.9,29.96,ENE,62,1.0,6.0,68,0.00,,,-99.99,Weather View 32 v70,2013-02-08 09:13:00,
2013-02-08 04:18:00,30.2,20.6,29.95,ENE,61,2.0,6.0,67,0.00,,,-99.99,Weather View 32 v70,2013-02-08 09:18:00,
2013-02-08 04:23:00,30.2,20.6,29.95,ENE,73,3.0,6.0,67,0.00,,,-99.99,Weather View 32 v70,2013-02-08 09:23:00,
2013-02-08 04:29:00,30.2,20.9,29.95,ENE,74,0.0,6.0,68,0.00,,,-99.99,Weather View 32 v70,2013-02-08 09:29:00,
2013-02-08 04:38:00,30.2,20.6,29.95,East,86,2.0,6.0,67,0.00,,,-99.99,Weather View 32 v70,2013-02-08 09:38:00,
2013-02-08 04:43:00,30.2,20.9,29.95,NNE,20,2.0,5.0,68,0.00,,,-99.99,Weather View 32 v70,2013-02-08 09:43:00,
2013-02-08 04:48:00,30.2,20.6,29.95,North,4,1.0,6.0,67,0.00,,,-99.99,Weather View 32 v70,2013-02-08 09:48:00,
2013-02-08 04:58:00,30.2,20.6,29.95,ESE,108,3.0,6.0,67,0.00,,,-99.99,Weather View 32 v70,2013-02-08 09:58:00,
2013-02-08 05:03:00,30.3,20.7,29.94,North,1,1.0,6.0,67,0.00,,,-99.99,Weather View 32 v70,2013-02-08 10:03:00,
2013-02-08 05:08:00,30.3,20.7,29.94,ENE,76,5.0,6.0,67,0.00,,,-99.99,Weather View 32 v70,2013-02-08 10:08:00,
2013-02-08 05:13:00,30.4,20.8,29.94,ENE,65,2.0,8.0,67,0.00,,,-99.99,Weather View 32 v70,2013-02-08 10:13:00,
2013-02-08 05:18:00,30.4,20.8,29.93,ENE,71,3.0,8.0,67,0.00,,,-99.99,Weather View 32 v70,2013-02-08 10:18:00,
2013-02-08 05:28:00,30.5,20.8,29.93,ENE,75,3.0,8.0,67,0.00,,,-99.99,Weather View 32 v70,2013-02-08 10:28:00,
2013-02-08 05:33:00,30.6,20.9,29.92,East,87,4.0,9.0,67,0.00,,,-99.99,Weather View 32 v70,2013-02-08 10:33:00,
2013-02-08 05:38:00,30.6,20.9,29.92,ENE,70,4.0,9.0,67,0.00,,,-99.99,Weather View 32 v70,2013-02-08 10:38:00,
2013-02-08 05:48:00,30.7,21.0,29.92,ENE,75,1.0,9.0,67,0.00,,,-99.99,Weather View 32 v70,2013-02-08 10:48:00,
2013-02-08 05:53:00,30.7,21.0,29.92,ENE,75,3.0,9.0,67,0.00,,,-99.99,Weather View 32 v70,2013-02-08 10:53:00,
2013-02-08 05:58:00,30.8,21.1,29.91,ENE,68,3.0,9.0,67,0.00,,,-99.99,Weather View 32 v70,2013-02-08 10:58:00,
2013-02-08 06:03:00,30.8,21.1,29.91,East,97,1.0,9.0,67,0.00,,,-99.99,Weather View 32 v70,2013-02-08 11:03:00,
2013-02-08 06:09:00,30.9,21.2,29.90,East,81,2.0,9.0,67,0.00,,,-99.99,Weather View 32 v70,2013-02-08 11:09:00,
2013-02-08 06:18:00,31.0,21.7,29.90,ENE,71,4.0,9.0,68,0.00,,,-99.99,Weather View 32 v70,2013-02-08 11:18:00,
2013-02-08 06:24:00,31.1,21.8,29.89,ENE,74,2.0,9.0,68,0.00,,,-99.99,Weather View 32 v70,2013-02-08 11:24:00,
2013-02-08 06:34:00,31.2,21.9,29.89,ENE,66,1.0,8.0,68,0.00,,,-99.99,Weather View 32 v70,2013-02-08 11:34:00,
2013-02-08 06:43:00,31.2,21.9,29.89,ENE,69,0.0,7.0,68,0.00,,,-99.99,Weather View 32 v70,2013-02-08 11:43:00,
2013-02-08 06:48:00,31.2,22.2,29.89,ENE,69,0.0,7.0,69,0.00,,,-99.99,Weather View 32 v70,2013-02-08 11:48:00,
2013-02-08 06:58:00,31.2,22.2,29.88,North,6,0.0,7.0,69,0.00,,,-99.99,Weather View 32 v70,2013-02-08 11:58:00,
2013-02-08 07:03:00,31.3,22.6,29.87,North,6,0.0,7.0,70,0.00,,,-99.99,Weather View 32 v70,2013-02-08 12:03:00,
2013-02-08 07:08:00,31.4,22.7,29.87,ENE,74,0.0,7.0,70,0.00,,,-99.99,Weather View 32 v70,2013-02-08 12:08:00,
2013-02-08 07:13:00,31.4,23.1,29.87,ENE,74,0.0,7.0,71,0.00,,,-99.99,Weather View 32 v70,2013-02-08 12:13:00,
2013-02-08 07:19:00,31.5,23.2,29.87,North,10,0.0,7.0,71,0.00,,,-99.99,Weather View 32 v70,2013-02-08 12:19:00,
2013-02-08 07:24:00,31.6,23.6,29.86,North,10,0.0,7.0,72,0.00,,,-99.99,Weather View 32 v70,2013-02-08 12:24:00,
2013-02-08 07:33:00,31.8,23.8,29.86,North,10,0.0,5.0,72,0.00,,,-99.99,Weather View 32 v70,2013-02-08 12:33:00,
2013-02-08 07:38:00,31.8,24.5,29.86,NE,48,1.0,5.0,74,0.00,,,-99.99,Weather View 32 v70,2013-02-08 12:38:00,
2013-02-08 07:43:00,32.1,24.7,29.86,NE,49,2.0,4.0,74,0.00,,,-99.99,Weather View 32 v70,2013-02-08 12:43:00,
2013-02-08 07:49:00,32.2,25.2,29.85,NE,49,0.0,4.0,75,0.00,,,-99.99,Weather View 32 v70,2013-02-08 12:49:00,
2013-02-08 07:58:00,32.6,25.9,29.85,East,88,1.0,4.0,76,0.00,,,-99.99,Weather View 32 v70,2013-02-08 12:58:00,
2013-02-08 08:03:00,33.0,26.3,29.85,SE,125,1.0,4.0,76,0.00,,,-99.99,Weather View 32 v70,2013-02-08 13:03:00,
2013-02-08 08:09:00,33.3,26.5,29.85,SE,125,0.0,4.0,76,0.00,,,-99.99,Weather View 32 v70,2013-02-08 13:09:00,
2013-02-08 08:18:00,33.8,27.0,29.84,ESE,105,2.0,4.0,76,0.00,,,-99.99,Weather View 32 v70,2013-02-08 13:18:00,
2013-02-08 08:23:00,34.0,27.2,29.84,East,83,2.0,4.0,76,0.00,,,-99.99,Weather View 32 v70,2013-02-08 13:23:00,
2013-02-08 08:28:00,34.3,27.5,29.84,ESE,113,0.0,5.0,76,0.00,,,-99.99,Weather View 32 v70,2013-02-08 13:28:00,
2013-02-08 08:34:00,34.3,27.5,29.84,ESE,113,2.0,5.0,76,0.00,,,-99.99,Weather View 32 v70,2013-02-08 13:34:00,
2013-02-08 08:43:00,34.4,27.6,29.83,ESE,113,1.0,5.0,76,0.00,,,-99.99,Weather View 32 v70,2013-02-08 13:43:00,
2013-02-08 08:48:00,34.5,27.7,29.83,ESE,113,2.0,5.0,76,0.01,,,-99.99,Weather View 32 v70,2013-02-08 13:48:00,
2013-02-08 08:53:00,34.5,28.0,29.83,ESE,113,0.0,5.0,77,0.01,,,-99.99,Weather View 32 v70,2013-02-08 13:53:00,
2013-02-08 08:59:00,34.5,28.0,29.83,ESE,113,1.0,5.0,77,0.01,,,-99.99,Weather View 32 v70,2013-02-08 13:59:00,
2013-02-08 09:08:00,34.5,28.3,29.82,East,97,0.0,5.0,78,0.03,,,-99.99,Weather View 32 v70,2013-02-08 14:08:00,
2013-02-08 09:13:00,34.7,28.9,29.82,East,97,0.0,5.0,79,0.03,,,-99.99,Weather View 32 v70,2013-02-08 14:13:00,
2013-02-08 09:19:00,34.7,28.9,29.82,East,97,0.0,5.0,79,0.04,,,-99.99,Weather View 32 v70,2013-02-08 14:19:00,
2013-02-08 09:25:00,34.7,29.2,29.82,East,97,0.0,5.0,80,0.04,,,-99.99,Weather View 32 v70,2013-02-08 14:25:00,
2013-02-08 09:33:00,34.7,29.5,29.82,East,97,0.0,5.0,81,0.05,,,-99.99,Weather View 32 v70,2013-02-08 14:33:00,
2013-02-08 09:38:00,34.7,29.5,29.81,East,97,0.0,5.0,81,0.06,,,-99.99,Weather View 32 v70,2013-02-08 14:38:00,
2013-02-08 09:44:00,34.8,29.9,29.81,East,97,0.0,5.0,82,0.07,,,-99.99,Weather View 32 v70,2013-02-08 14:44:00,
2013-02-08 09:49:00,34.7,29.8,29.81,East,97,0.0,5.0,82,0.06,,,-99.99,Weather View 32 v70,2013-02-08 14:49:00,
2013-02-08 09:58:00,34.7,30.1,29.82,East,97,0.0,5.0,83,0.06,,,-99.99,Weather View 32 v70,2013-02-08 14:58:00,
2013-02-08 10:03:00,34.7,30.1,29.82,East,97,0.0,5.0,83,0.06,,,-99.99,Weather View 32 v70,2013-02-08 15:03:00,
2013-02-08 10:09:00,34.7,30.4,29.82,East,97,1.0,2.0,84,0.06,,,-99.99,Weather View 32 v70,2013-02-08 15:09:00,
2013-02-08 10:18:00,34.8,30.7,29.82,NW,309,2.0,4.0,85,0.06,,,-99.99,Weather View 32 v70,2013-02-08 15:18:00,
2013-02-08 10:23:00,34.9,30.8,29.82,NW,309,3.0,4.0,85,0.07,,,-99.99,Weather View 32 v70,2013-02-08 15:23:00,
2013-02-08 10:29:00,34.7,30.7,29.82,NW,309,3.0,4.0,85,0.07,,,-99.99,Weather View 32 v70,2013-02-08 15:29:00,
2013-02-08 10:38:00,34.6,30.6,29.82,NW,309,2.0,4.0,85,0.08,,,-99.99,Weather View 32 v70,2013-02-08 15:38:00,
2013-02-08 10:44:00,34.6,30.6,29.82,NW,309,0.0,4.0,85,0.08,,,-99.99,Weather View 32 v70,2013-02-08 15:44:00,
2013-02-08 10:53:00,34.5,30.5,29.82,NW,309,0.0,4.0,85,0.10,,,-99.99,Weather View 32 v70,2013-02-08 15:53:00,
2013-02-08 10:58:00,34.5,30.5,29.82,NW,309,1.0,4.0,85,0.10,,,-99.99,Weather View 32 v70,2013-02-08 15:58:00,
2013-02-08 11:04:00,34.3,30.3,29.82,NW,309,0.0,4.0,85,0.10,,,-99.99,Weather View 32 v70,2013-02-08 16:04:00,
2013-02-08 11:09:00,34.2,30.2,29.82,NW,309,1.0,4.0,85,0.10,,,-99.99,Weather View 32 v70,2013-02-08 16:09:00,
2013-02-08 11:18:00,34.1,30.1,29.82,NW,309,1.0,4.0,85,0.09,,,-99.99,Weather View 32 v70,2013-02-08 16:18:00,
2013-02-08 11:24:00,34.0,30.0,29.81,NW,309,0.0,4.0,85,0.08,,,-99.99,Weather View 32 v70,2013-02-08 16:24:00,
2013-02-08 11:29:00,33.9,29.9,29.81,NW,309,0.0,4.0,85,0.07,,,-99.99,Weather View 32 v70,2013-02-08 16:29:00,
2013-02-08 11:38:00,34.1,30.1,29.81,NW,309,0.0,3.0,85,0.05,,,-99.99,Weather View 32 v70,2013-02-08 16:38:00,
2013-02-08 11:44:00,34.2,30.2,29.81,NW,309,0.0,3.0,85,0.04,,,-99.99,Weather View 32 v70,2013-02-08 16:44:00,
2013-02-08 11:49:00,34.3,30.3,29.81,NW,309,0.0,3.0,85,0.03,,,-99.99,Weather View 32 v70,2013-02-08 16:49:00,
2013-02-08 11:58:00,34.6,30.6,29.80,NW,309,0.0,3.0,85,0.02,,,-99.99,Weather View 32 v70,2013-02-08 16:58:00,
2013-02-08 12:04:00,34.7,30.7,29.80,NW,309,0.0,2.0,85,0.01,,,-99.99,Weather View 32 v70,2013-02-08 17:04:00,
2013-02-08 12:09:00,34.8,30.5,29.80,NW,309,0.0,2.0,84,0.00,,,-99.99,Weather View 32 v70,2013-02-08 17:09:00,
2013-02-08 12:18:00,34.8,30.5,29.79,NW,309,0.0,2.0,84,0.00,,,-99.99,Weather View 32 v70,2013-02-08 17:18:00,
2013-02-08 12:24:00,34.9,30.6,29.79,NW,309,0.0,2.0,84,0.00,,,-99.99,Weather View 32 v70,2013-02-08 17:24:00,
2013-02-08 12:29:00,35.1,30.8,29.79,NW,309,0.0,2.0,84,0.01,,,-99.99,Weather View 32 v70,2013-02-08 17:29:00,
2013-02-08 12:38:00,35.2,30.8,29.79,NW,309,1.0,2.0,84,0.01,,,-99.99,Weather View 32 v70,2013-02-08 17:38:00,
2013-02-08 12:43:00,35.3,30.9,29.79,NW,309,0.0,2.0,84,0.01,,,-99.99,Weather View 32 v70,2013-02-08 17:43:00,
2013-02-08 12:49:00,35.3,30.9,29.78,NW,309,0.0,2.0,84,0.01,,,-99.99,Weather View 32 v70,2013-02-08 17:49:00,
2013-02-08 12:58:00,35.4,31.0,29.78,NW,309,0.0,2.0,84,0.02,,,-99.99,Weather View 32 v70,2013-02-08 17:58:00,
2013-02-08 13:04:00,35.4,30.7,29.78,NW,309,0.0,2.0,83,0.02,,,-99.99,Weather View 32 v70,2013-02-08 18:04:00,
2013-02-08 13:09:00,35.4,30.7,29.78,NW,309,0.0,2.0,83,0.02,,,-99.99,Weather View 32 v70,2013-02-08 18:09:00,
2013-02-08 13:14:00,35.3,30.7,29.78,NW,309,0.0,2.0,83,0.03,,,-99.99,Weather View 32 v70,2013-02-08 18:14:00,
2013-02-08 13:23:00,35.2,30.6,29.78,NW,309,1.0,2.0,83,0.03,,,-99.99,Weather View 32 v70,2013-02-08 18:23:00,
2013-02-08 13:29:00,35.1,30.5,29.78,NW,309,0.0,2.0,83,0.03,,,-99.99,Weather View 32 v70,2013-02-08 18:29:00,
2013-02-08 13:39:00,35.0,30.4,29.78,NW,309,0.0,2.0,83,0.03,,,-99.99,Weather View 32 v70,2013-02-08 18:39:00,
2013-02-08 13:49:00,34.8,30.2,29.78,NW,309,0.0,2.0,83,0.03,,,-99.99,Weather View 32 v70,2013-02-08 18:49:00,
2013-02-08 13:54:00,34.9,30.3,29.78,NW,309,0.0,2.0,83,0.03,,,-99.99,Weather View 32 v70,2013-02-08 18:54:00,
2013-02-08 14:03:00,34.8,30.2,29.78,NW,309,0.0,3.0,83,0.03,,,-99.99,Weather View 32 v70,2013-02-08 19:03:00,
2013-02-08 14:09:00,34.6,30.0,29.78,NW,309,0.0,3.0,83,0.03,,,-99.99,Weather View 32 v70,2013-02-08 19:09:00,
2013-02-08 14:18:00,34.6,30.0,29.78,NW,309,0.0,3.0,83,0.02,,,-99.99,Weather View 32 v70,2013-02-08 19:18:00,
2013-02-08 14:23:00,34.7,30.4,29.78,NW,309,0.0,3.0,84,0.03,,,-99.99,Weather View 32 v70,2013-02-08 19:23:00,
2013-02-08 14:29:00,34.9,30.6,29.78,NW,309,0.0,3.0,84,0.02,,,-99.99,Weather View 32 v70,2013-02-08 19:29:00,
2013-02-08 14:34:00,34.9,30.3,29.78,NW,309,2.0,3.0,83,0.02,,,-99.99,Weather View 32 v70,2013-02-08 19:34:00,
2013-02-08 14:39:00,34.6,30.3,29.77,NW,309,0.0,4.0,84,0.02,,,-99.99,Weather View 32 v70,2013-02-08 19:39:00,
2013-02-08 14:49:00,34.6,30.0,29.77,NW,309,1.0,4.0,83,0.02,,,-99.99,Weather View 32 v70,2013-02-08 19:49:00,
2013-02-08 14:54:00,34.4,30.1,29.77,NW,309,1.0,4.0,84,0.01,,,-99.99,Weather View 32 v70,2013-02-08 19:54:00,
2013-02-08 15:03:00,34.2,29.9,29.78,North,0,0.0,5.0,84,0.02,,,-99.99,Weather View 32 v70,2013-02-08 20:03:00,
2013-02-08 15:09:00,34.2,29.9,29.78,NW,316,1.0,5.0,84,0.02,,,-99.99,Weather View 32 v70,2013-02-08 20:09:00,
2013-02-08 15:14:00,34.2,29.9,29.78,NW,316,1.0,5.0,84,0.02,,,-99.99,Weather View 32 v70,2013-02-08 20:14:00,
2013-02-08 15:19:00,34.1,29.8,29.79,NW,315,2.0,6.0,84,0.02,,,-99.99,Weather View 32 v70,2013-02-08 20:19:00,
2013-02-08 15:29:00,33.4,29.1,29.80,NW,313,4.0,6.0,84,0.01,,,-99.99,Weather View 32 v70,2013-02-08 20:29:00,
2013-02-08 15:39:00,31.7,27.1,29.80,NNW,334,0.0,9.0,83,0.02,,,-99.99,Weather View 32 v70,2013-02-08 20:39:00,
2013-02-08 15:49:00,30.2,25.7,29.81,NNW,333,0.0,9.0,83,0.02,,,-99.99,Weather View 32 v70,2013-02-08 20:49:00,
2013-02-08 15:54:00,29.6,25.1,29.81,NNW,334,0.0,9.0,83,0.02,,,-99.99,Weather View 32 v70,2013-02-08 20:54:00,
2013-02-08 15:59:00,29.1,24.6,29.82,NNW,333,0.0,9.0,83,0.02,,,-99.99,Weather View 32 v70,2013-02-08 20:59:00,
2013-02-08 16:09:00,28.1,23.9,29.83,NNW,334,0.0,9.0,84,0.01,,,-99.99,Weather View 32 v70,2013-02-08 21:09:00,
2013-02-08 16:14:00,27.7,23.5,29.83,NNW,333,0.0,9.0,84,0.01,,,-99.99,Weather View 32 v70,2013-02-08 21:14:00,
2013-02-08 16:23:00,27.2,23.0,29.84,NNW,333,0.0,9.0,84,0.01,,,-99.99,Weather View 32 v70,2013-02-08 21:23:00,
2013-02-08 16:29:00,27.1,22.9,29.84,NNW,333,0.0,9.0,84,0.01,,,-99.99,Weather View 32 v70,2013-02-08 21:29:00,
2013-02-08 16:34:00,26.6,22.4,29.85,NNW,333,0.0,6.0,84,0.01,,,-99.99,Weather View 32 v70,2013-02-08 21:34:00,
2013-02-08 16:39:00,26.4,22.2,29.86,NNW,334,0.0,0.0,84,0.00,,,-99.99,Weather View 32 v70,2013-02-08 21:39:00,
2013-02-08 16:49:00,26.1,21.9,29.87,NNW,333,0.0,0.0,84,0.00,,,-99.99,Weather View 32 v70,2013-02-08 21:49:00,
2013-02-08 16:54:00,25.5,21.1,29.87,NNW,333,0.0,0.0,83,0.00,,,-99.99,Weather View 32 v70,2013-02-08 21:54:00,
2013-02-08 17:04:00,25.0,20.6,29.89,NNW,333,0.0,0.0,83,0.00,,,-99.99,Weather View 32 v70,2013-02-08 22:04:00,
2013-02-08 17:09:00,25.0,20.3,29.90,NNW,333,0.0,0.0,82,0.00,,,-99.99,Weather View 32 v70,2013-02-08 22:09:00,
2013-02-08 17:14:00,24.7,20.0,29.90,NNW,334,0.0,0.0,82,0.00,,,-99.99,Weather View 32 v70,2013-02-08 22:14:00,
2013-02-08 17:24:00,24.2,19.5,29.91,NNW,334,0.0,0.0,82,0.00,,,-99.99,Weather View 32 v70,2013-02-08 22:24:00,
2013-02-08 17:29:00,23.8,19.1,29.92,NNW,334,0.0,0.0,82,0.00,,,-99.99,Weather View 32 v70,2013-02-08 22:29:00,
2013-02-08 17:34:00,23.6,18.9,29.92,NNW,334,0.0,0.0,82,0.00,,,-99.99,Weather View 32 v70,2013-02-08 22:34:00,
2013-02-08 17:44:00,23.2,18.8,29.93,NNW,334,0.0,0.0,83,0.00,,,-99.99,Weather View 32 v70,2013-02-08 22:44:00,
2013-02-08 17:49:00,23.1,18.7,29.94,NNW,333,0.0,0.0,83,0.00,,,-99.99,Weather View 32 v70,2013-02-08 22:49:00,
2013-02-08 17:59:00,22.7,18.3,29.95,NNW,334,0.0,0.0,83,0.00,,,-99.99,Weather View 32 v70,2013-02-08 22:59:00,
2013-02-08 18:04:00,22.6,18.2,29.95,NNW,327,0.0,0.0,83,0.00,,,-99.99,Weather View 32 v70,2013-02-08 23:04:00,
2013-02-08 18:09:00,22.6,18.2,29.96,NNW,327,0.0,0.0,83,0.00,,,-99.99,Weather View 32 v70,2013-02-08 23:09:00,
2013-02-08 18:19:00,22.2,17.8,29.97,NNW,327,0.0,0.0,83,0.00,,,-99.99,Weather View 32 v70,2013-02-08 23:19:00,
2013-02-08 18:24:00,22.1,17.4,29.97,NNW,327,0.0,0.0,82,0.00,,,-99.99,Weather View 32 v70,2013-02-08 23:24:00,
2013-02-08 18:31:00,21.8,17.4,29.98,NNW,327,0.0,0.0,83,0.00,,,-99.99,Weather View 32 v70,2013-02-08 23:31:00,
2013-02-08 18:39:00,21.7,17.3,29.98,NNW,327,0.0,0.0,83,0.00,,,-99.99,Weather View 32 v70,2013-02-08 23:39:00,
2013-02-08 18:44:00,21.5,16.9,29.99,NNW,327,0.0,0.0,82,0.00,,,-99.99,Weather View 32 v70,2013-02-08 23:44:00,
2013-02-08 18:49:00,21.5,17.1,30.00,NNW,327,0.0,0.0,83,0.00,,,-99.99,Weather View 32 v70,2013-02-08 23:49:00,
2013-02-08 18:59:00,21.5,16.9,30.00,NNW,327,0.0,0.0,82,0.00,,,-99.99,Weather View 32 v70,2013-02-08 23:59:00,
2013-02-08 19:04:00,21.5,17.1,30.01,NNW,327,0.0,0.0,83,0.00,,,-99.99,Weather View 32 v70,2013-02-09 00:04:00,
2013-02-08 19:09:00,21.5,17.1,30.01,NNW,327,0.0,0.0,83,0.00,,,-99.99,Weather View 32 v70,2013-02-09 00:09:00,
2013-02-08 19:19:00,21.7,17.1,30.02,NNW,327,0.0,0.0,82,0.00,,,-99.99,Weather View 32 v70,2013-02-09 00:19:00,
2013-02-08 19:24:00,21.6,17.0,30.02,NNW,327,0.0,0.0,82,0.00,,,-99.99,Weather View 32 v70,2013-02-09 00:24:00,
2013-02-08 19:29:00,21.5,16.9,30.02,NNW,327,0.0,0.0,82,0.00,,,-99.99,Weather View 32 v70,2013-02-09 00:29:00,
2013-02-08 19:39:00,21.3,16.7,30.03,NNW,327,0.0,0.0,82,0.00,,,-99.99,Weather View 32 v70,2013-02-09 00:39:00,
2013-02-08 19:44:00,21.1,16.5,30.04,NNW,327,0.0,0.0,82,0.00,,,-99.99,Weather View 32 v70,2013-02-09 00:44:00,
2013-02-08 19:49:00,21.1,16.5,30.04,NNW,327,0.0,0.0,82,0.00,,,-99.99,Weather View 32 v70,2013-02-09 00:49:00,
2013-02-08 19:59:00,20.9,16.0,30.05,NNW,327,0.0,0.0,81,0.00,,,-99.99,Weather View 32 v70,2013-02-09 00:59:00,
2013-02-08 20:04:00,20.8,15.9,30.05,NNW,327,0.0,0.0,81,0.00,,,-99.99,Weather View 32 v70,2013-02-09 01:04:00,
2013-02-08 20:09:00,20.9,16.0,30.05,NNW,327,0.0,0.0,81,0.00,,,-99.99,Weather View 32 v70,2013-02-09 01:09:00,
2013-02-08 20:19:00,20.8,15.6,30.05,NNW,327,0.0,0.0,80,0.00,,,-99.99,Weather View 32 v70,2013-02-09 01:19:00,
2013-02-08 20:29:00,20.7,15.5,30.06,NNW,327,0.0,0.0,80,0.00,,,-99.99,Weather View 32 v70,2013-02-09 01:29:00,
2013-02-08 20:34:00,20.7,15.5,30.06,NNW,327,0.0,0.0,80,0.00,,,-99.99,Weather View 32 v70,2013-02-09 01:34:00,
2013-02-08 20:39:00,20.7,15.5,30.07,NNW,327,0.0,0.0,80,0.00,,,-99.99,Weather View 32 v70,2013-02-09 01:39:00,
2013-02-08 20:49:00,20.7,15.5,30.08,NNW,327,0.0,0.0,80,0.00,,,-99.99,Weather View 32 v70,2013-02-09 01:49:00,
2013-02-08 20:54:00,20.4,15.2,30.08,NNW,327,0.0,0.0,80,0.00,,,-99.99,Weather View 32 v70,2013-02-09 01:54:00,
2013-02-08 20:59:00,20.1,14.9,30.08,NNW,327,0.0,0.0,80,0.00,,,-99.99,Weather View 32 v70,2013-02-09 01:59:00,
2013-02-08 21:09:00,20.0,14.8,30.09,NNW,327,0.0,0.0,80,0.00,,,-99.99,Weather View 32 v70,2013-02-09 02:09:00,
2013-02-08 21:14:00,19.9,14.4,30.09,NNW,327,0.0,0.0,79,0.00,,,-99.99,Weather View 32 v70,2013-02-09 02:14:00,
2013-02-08 21:19:00,19.7,14.0,30.10,NNW,327,0.0,0.0,78,0.00,,,-99.99,Weather View 32 v70,2013-02-09 02:19:00,
2013-02-08 21:29:00,19.5,13.8,30.10,NNW,327,0.0,0.0,78,0.00,,,-99.99,Weather View 32 v70,2013-02-09 02:29:00,
2013-02-08 21:34:00,19.5,13.8,30.10,NNW,327,0.0,0.0,78,0.00,,,-99.99,Weather View 32 v70,2013-02-09 02:34:00,
2013-02-08 21:39:00,19.6,13.9,30.11,NNW,327,0.0,0.0,78,0.00,,,-99.99,Weather View 32 v70,2013-02-09 02:39:00,
2013-02-08 21:44:00,19.5,13.8,30.11,NNW,327,0.0,0.0,78,0.00,,,-99.99,Weather View 32 v70,2013-02-09 02:44:00,
2013-02-08 21:49:00,19.4,13.7,30.11,NNW,327,0.0,0.0,78,0.00,,,-99.99,Weather View 32 v70,2013-02-09 02:49:00,
2013-02-08 21:59:00,19.2,13.5,30.12,NNW,327,0.0,0.0,78,0.00,,,-99.99,Weather View 32 v70,2013-02-09 02:59:00,
2013-02-08 22:04:00,19.1,13.1,30.12,NNW,327,0.0,0.0,77,0.00,,,-99.99,Weather View 32 v70,2013-02-09 03:04:00,
2013-02-08 22:09:00,19.2,13.2,30.12,NNW,327,0.0,0.0,77,0.00,,,-99.99,Weather View 32 v70,2013-02-09 03:09:00,
2013-02-08 22:19:00,19.1,13.4,30.12,NNW,327,0.0,0.0,78,0.00,,,-99.99,Weather View 32 v70,2013-02-09 03:19:00,
2013-02-08 22:24:00,19.1,13.1,30.12,NNW,327,0.0,0.0,77,0.00,,,-99.99,Weather View 32 v70,2013-02-09 03:24:00,
2013-02-08 22:29:00,19.1,13.1,30.12,NNW,327,0.0,0.0,77,0.00,,,-99.99,Weather View 32 v70,2013-02-09 03:29:00,
2013-02-08 22:34:00,19.1,13.1,30.13,NNW,327,0.0,0.0,77,0.00,,,-99.99,Weather View 32 v70,2013-02-09 03:34:00,
2013-02-08 22:44:00,18.9,12.9,30.13,NNW,327,0.0,0.0,77,0.00,,,-99.99,Weather View 32 v70,2013-02-09 03:44:00,
2013-02-08 22:49:00,18.8,12.8,30.13,NNW,327,0.0,0.0,77,0.00,,,-99.99,Weather View 32 v70,2013-02-09 03:49:00,
2013-02-08 22:59:00,18.8,12.8,30.13,NNW,327,0.0,0.0,77,0.00,,,-99.99,Weather View 32 v70,2013-02-09 03:59:00,
2013-02-08 23:04:00,18.6,12.6,30.13,NNW,327,0.0,0.0,77,0.00,,,-99.99,Weather View 32 v70,2013-02-09 04:04:00,
2013-02-08 23:09:00,18.6,12.6,30.14,NNW,327,0.0,0.0,77,0.00,,,-99.99,Weather View 32 v70,2013-02-09 04:09:00,
2013-02-08 23:19:00,18.5,12.2,30.14,NNW,327,0.0,0.0,76,0.00,,,-99.99,Weather View 32 v70,2013-02-09 04:19:00,
2013-02-08 23:29:00,18.5,12.5,30.14,NNW,327,0.0,0.0,77,0.00,,,-99.99,Weather View 32 v70,2013-02-09 04:29:00,
2013-02-08 23:34:00,18.5,12.2,30.15,NNW,327,0.0,0.0,76,0.00,,,-99.99,Weather View 32 v70,2013-02-09 04:34:00,
2013-02-08 23:44:00,18.5,12.2,30.15,NNW,327,0.0,0.0,76,0.00,,,-99.99,Weather View 32 v70,2013-02-09 04:44:00,
2013-02-08 23:49:00,18.5,12.2,30.15,NNW,327,0.0,0.0,76,0.00,,,-99.99,Weather View 32 v70,2013-02-09 04:49:00,
2013-02-08 23:54:00,18.5,12.2,30.16,NNW,327,0.0,0.0,76,0.00,,,-99.99,Weather View 32 v70,2013-02-09 04:54:00,
2013-02-08 23:59:00,18.5,12.5,30.16,NNW,327,0.0,0.0,77,0.00,,,-99.99,Weather View 32 v70,2013-02-09 04:59:00,